Home > Time Zones > World Clock > Weather > Latvia > Riga > Past weeks

Flag for Latvia Weather past 2 weeks in Riga, Latvia

28 °F


Feels Like: 17 °F
Forecast: 28 / 34 °F
Wind: 15 mph from South

Location: Riga Airport

Current Time: Nov 25, 2015 at 10:38:20 PM

Latest Report: Nov 25, 2015 at 10:20 PM

Visibility: 10 mi

Pressure: 29.86 "Hg

Humidity: 80%

Dew point: 23 °F

Location of RigaLocation

Historic Weather in Riga — Graph


Riga temperature yesterday

Maximum temperature yesterday: 34 °F (at 12:50 PM)
Minimum temperature yesterday: 27 °F (at 12:20 AM)
Average temperature yesterday: 31 °F

Past Weeks' High & Low Weather Summary

High52 °F (Nov 11, 11:50 AM)100% (Nov 11, 5:50 AM)30.09 "Hg (Nov 11, 5:50 AM)
Low19 °F (Nov 22, 7:50 AM)67% (Nov 11, 2:20 PM)29.18 "Hg (Nov 18, 12:50 PM)
Average39 °F95%29.63 "Hg
* Reported Nov 10 9:20 PM — Nov 25 9:20 PM, Riga, Weather by CustomWeather, © 2015

Note: Actual official high and low records may vary slightly from our data, if they occured in-between our weather recording intervals... More about our weather records


Riga weather history for previous 24 hours

Time TempWeatherWind HumidityBarometerVisibility
9:20 PM
Wed, Nov 25
28 °FClear.15 mph86%29.86 "Hg10 mi
8:50 PM28 °FClear.15 mph86%29.86 "Hg10 mi
8:20 PM28 °FClear.16 mph86%29.86 "Hg10 mi
7:50 PM28 °FClear.14 mph86%29.86 "Hg10 mi
7:20 PM30 °FClear.14 mph86%29.86 "Hg10 mi
6:50 PM30 °FClear.14 mph86%29.86 "Hg10 mi
6:20 PM30 °FClear.14 mph86%29.86 "Hg6 mi
5:50 PM30 °FClear.14 mph93%29.86 "Hg6 mi
5:20 PM30 °FClear.15 mph93%29.86 "Hg6 mi
4:50 PM32 °FClear.13 mph87%29.86 "Hg10 mi
4:20 PM32 °FClear.14 mph87%29.86 "Hg6 mi
3:50 PM32 °FClear.14 mph87%29.86 "Hg6 mi
3:20 PM32 °FClear.14 mph87%29.86 "Hg6 mi
2:50 PM32 °FClear.15 mph87%29.89 "Hg6 mi
2:20 PM32 °FClear.16 mph87%29.89 "Hg6 mi
1:50 PM32 °FClear.15 mph87%29.89 "Hg6 mi
1:20 PM32 °FClear.15 mph87%29.89 "Hg6 mi
12:50 PM32 °FClear.14 mph87%29.89 "Hg6 mi
12:20 PM32 °FClear.15 mph87%29.89 "Hg6 mi
11:50 AM32 °FSunny.14 mph87%29.89 "Hg10 mi
11:20 AM32 °FSunny.15 mph87%29.92 "Hg10 mi
10:50 AM32 °FClear.15 mph87%29.92 "Hg6 mi
10:20 AM32 °FClear.16 mph87%29.89 "Hg6 mi
9:50 AM32 °FClear.15 mph87%29.89 "Hg6 mi
9:20 AM30 °FClear.15 mph93%29.92 "Hg6 mi
8:50 AM30 °FClear.13 mph93%29.92 "Hg6 mi
8:20 AM30 °FClear.14 mph93%29.92 "Hg6 mi
7:50 AM30 °FClear.14 mph93%29.89 "Hg10 mi
7:20 AM30 °FClear.15 mph93%29.89 "Hg10 mi
6:50 AM30 °FClear.14 mph93%29.89 "Hg10 mi
6:20 AM30 °FClear.15 mph93%29.89 "Hg10 mi
5:20 AM30 °FClear.14 mph93%29.92 "Hg10 mi
4:50 AM30 °FClear.13 mph93%29.92 "Hg10 mi
4:20 AM30 °FClear.13 mph93%29.92 "Hg10 mi
3:50 AM30 °FClear.14 mph93%29.92 "Hg10 mi
3:20 AM30 °FClear.15 mph93%29.95 "Hg10 mi
2:20 AM30 °FPassing clouds.15 mph93%29.95 "HgN/A
1:50 AM32 °FPassing clouds.15 mph93%29.95 "HgN/A
1:20 AM32 °FPassing clouds.15 mph93%29.95 "HgN/A
12:50 AM32 °FPassing clouds.15 mph93%29.98 "Hg6 mi
12:20 AM32 °FPartly cloudy.14 mph93%29.98 "Hg6 mi
11:50 PM
Tue, Nov 24
32 °FLight snow. Partly cloudy.14 mph93%29.98 "Hg6 mi
11:20 PM32 °FLight snow. Passing clouds.13 mph93%29.98 "Hg5 mi
10:50 PM32 °FLight snow. Mostly cloudy.14 mph93%29.98 "Hg5 mi
10:20 PM32 °FLight snow. Mostly cloudy.15 mph93%29.98 "Hg4 mi
Weather by CustomWeather, © 2015

See weather overviewHow to use our weather pages